Regional Weather Roundup
Issued by NWS Sterling, VA

Home | Current Version | Previous Version | Graphics & Text | Print | Product List | Glossary On
Versions: 1 2 3 4 5 6 7 8 9 10 11 12 13 14 15 16 17 18 19 20 21 22 23 24 25 26 27
000
ASUS41 KLWX 201011
RWRLWX

REGIONAL WEATHER ROUNDUP
NATIONAL WEATHER SERVICE BALTIMORE MD/WASHINGTON DC
500 AM EST MON FEB 20 2017

Note: "FAIR" indicates few or no clouds below 12,000 feet
with no significant weather and/or obstructions to visibility.
 TC=TEMPERATURE CELSIUS

 * =Non NWS site. Station does not report precipitation (e.g. rain,
    snow, etc.), thunder, or fog.

DCZ001-MDZ009-015-VAZ040>042-051-053>054-201100-
WASHINGTON METRO

CITY           SKY/WX    TMP DP  RH WIND       PRES   REMARKS
WASHINGTON NAT CLEAR     47  42  83 CALM      30.14R
DULLES         CLEAR     45  39  79 NW6       30.13R
ANDREWS AFB    CLEAR     50  41  73 NW8       30.12R
FT BELVOIR     CLEAR     40  37  89 CALM      30.13R
QUANTICO       CLEAR     41  40  96 CALM      30.15R
COLLEGE PARK*  CLEAR     50  41  71 NW3       30.13R
LEESBURG*      CLEAR     48  45  87 MISG      30.14S
MANASSAS*      PTCLDY    38  36  92 SE3       30.14R
GAITHERSBURG*  CLEAR     50  37  62 NW6       30.17R

$$

MDZ006>007-011-014-201100-
BALTIMORE METRO

CITY           SKY/WX    TMP DP  RH WIND       PRES   REMARKS
BWI AIRPORT    CLEAR     44  39  82 CALM      30.12R
MD SCIENCE CTR   N/A     53  37  54 MISG      30.13R
ANNAPOLIS      CLEAR     43  40  89 CALM      30.12R
FORT MEADE*    CLEAR     34  34 100 CALM      30.15R

$$

MDZ012-015-019>023-201100-
MARYLAND EASTERN SHORE

CITY           SKY/WX    TMP DP  RH WIND       PRES   REMARKS
OCEAN CITY     CLEAR     48  40  73 NW8       30.10R
SALISBURY      CLEAR     49  42  77 NW7       30.10R
BAY BRIDGE AP* CLEAR     46  41  81 CALM      30.13R
CAMBRIDGE*     CLEAR     45  39  81 NW6       30.12R
EASTON*        CLEAR     47  41  77 NW5       30.16R

$$

MDZ017>025-201100-
SOUTHERN MARYLAND

CITY           SKY/WX    TMP DP  RH WIND       PRES   REMARKS
PATUXENT RIVER CLEAR     50  43  77 NW9       30.12R
ST INIGOES     CLEAR     53  42  66 NW8       30.12R
LEONARDTOWN*   CLEAR     50  41  71 W3        30.14R

$$

MDZ003>005-201100-
NORTH CENTRAL MARYLAND

CITY           SKY/WX    TMP DP  RH WIND       PRES   REMARKS
FREDERICK*     CLEAR     46  39  76 CALM      30.16R
HAGERSTOWN APT CLEAR     49  39  68 NW9       30.14R
WESTMINSTER*   CLEAR     48  36  61 NW5       30.13R

$$

MDZ501>502-201100-
WESTERN MARYLAND

CITY           SKY/WX    TMP DP  RH WIND       PRES   REMARKS
OAKLAND*       CLOUDY    41  39  93 W8        30.17R FOG
CUMBERLAND*    PTCLDY    52  39  62 CALM      30.20R

$$

VAZ025>031-201100-
SHENANDOAH VALLEY

CITY           SKY/WX    TMP DP  RH WIND       PRES   REMARKS
WINCHESTER*    CLEAR     46  37  71 W5        30.14S
FRONT ROYAL*   CLEAR     46  37  71 S3        30.14R
LURAY*         CLEAR     37  36  93 SW5       30.17R
NEW MARKET*    CLEAR     34  31  90 CALM      30.17R
STAUNTON*      CLEAR     27  25  92 CALM      30.20R
WAYNESBORO*    CLEAR     36  34  91 CALM      30.17S

$$

WVZ021-048>050-054>055-201100-
EASTERN WEST VIRGINIA PANHANDLE

CITY           SKY/WX    TMP DP  RH WIND       PRES   REMARKS
MARTINSBURG    CLEAR     51  40  65 W10       30.14R
PETERSBURG*      N/A     34  34  99 CALM      30.20R FOG

$$

VAZ036>039-050-201100-
CENTRAL FOOTHILLS

CITY           SKY/WX    TMP DP  RH WIND       PRES   REMARKS
CHARLOTTESVILL CLEAR     53  36  52 SW5       30.14R
CULPEPER*      CLEAR     35  33  93 CALM      30.15R
ORANGE*        CLEAR     34  32  93 CALM      30.16R
GORDONSVILLE*  CLEAR     35  33  92 CALM      30.14R
WARRENTON*     CLEAR     33  30  88 CALM      30.13R

$$

VAZ055>057-201100-
NORTH AND CENTRAL PIEDMONT

CITY           SKY/WX    TMP DP  RH WIND       PRES   REMARKS
FREDERICKSBRG* CLEAR     39  37  91 CALM      30.14R
STAFFORD*      CLEAR     36  35  96 CALM      30.18R

$$

NCZ024-NYZ072-PAZ021-071-VAZ022-071-201100-
OTHER REGIONAL OBSERVATIONS

CITY           SKY/WX    TMP DP  RH WIND       PRES   REMARKS
NEW YORK CITY  CLEAR     45  31  58 NW5       30.10R
PHILADELPHIA   CLEAR     47  32  56 N9        30.11R
PITTSBURGH     MOCLDY    39  38  96 CALM      30.18R FOG
ROANOKE        CLEAR     40  36  86 VRB5      30.21R
RICHMOND       PTCLDY    47  39  74 NE8       30.14R
RALEIGH        CLEAR     46  40  79 CALM      30.15R

$$

ANZ530>537-201100-
MARINE OBSERVATIONS

STATION/POSITION TIME  TEMP    WIND        PRES
                       AIR SEA DIR/SP/G
                 (UTC) (F)     (DEG/KT/KT) (MB)
THOMAS PT LIGHT  1000   52 41  340/  8/  8   N/A
BALT KEY BRIDGE  0942   51     240/  4/  4 1020.0R
COVE POINT       0942   54     330/ 15/ 19 1020.3R
LEWISETTA        0942   55 45  340/ 11/ 16 1019.8R
SOLOMONS ISLAND  0948          310/  3/  7   N/A
PINEY POINT      0948          360/  8/  8   N/A

$$





USA.gov is the U.S. government's official web portal to all federal, state and local government web resources and services.